Home   Weather   Kakata   Past weeks

Flag for Liberia Past Weather in Kakata, Liberia — Yesterday and Last 2 Weeks

Now
81 °F

Scattered clouds.


Feels Like: 85 °F
Forecast: 73 / 91 °F
Wind: No wind

Location: Roberts Field

Current Time: Dec 9, 2016 at 10:04:37 am

Latest Report: Dec 9, 2016 at 9:30 am


Visibility: N/A

Pressure: 29.92 "Hg

Humidity: 79%

Dew Point: 73 °F

Location of KakataLocation

Past Weather in Kakata — Graph

°F

Kakata Temperature Yesterday

Maximum temperature yesterday: 88 °F (at 12:30 pm)
Minimum temperature yesterday: 73 °F (at 3:30 am)
Average temperature yesterday: 78 °F

High & Low Weather Summary for the Past Weeks

 TemperatureHumidityPressure
High91 °F (Nov 24, 2:00 pm)94% (Nov 24, 4:00 pm)29.95 "Hg (Nov 24, 4:00 pm)
Low72 °F (Dec 9, 7:00 am)63% (Nov 24, 2:00 pm)29.74 "Hg (Nov 26, 3:30 pm)
Average81 °F86%29.86 "Hg
* Reported Nov 24 9:00 am — Dec 9 9:00 am, Kakata, Weather by CustomWeather, © 2016

Note: Actual official high and low records may vary slightly from our data, if they occured in-between our weather recording intervals... More about our weather records

Advertising

Kakata Weather History for the Previous 24 Hours

Scroll right to see more
 ConditionsComfort  
Time TempWeatherWind HumidityBarometerVisibility
9:00 am
Fri, Dec 9
79 °FScattered clouds.No wind84%29.92 "HgN/A
8:30 am77 °FScattered clouds.No wind89%29.92 "HgN/A
8:00 am73 °FScattered clouds.No wind94%29.92 "HgN/A
7:30 am73 °FPassing clouds.No wind94%29.89 "HgN/A
7:00 am72 °FPassing clouds.No wind94%29.89 "HgN/A
6:30 am73 °FPassing clouds.No wind94%29.89 "HgN/A
6:00 am73 °FPassing clouds.3 mph94%29.89 "HgN/A
5:00 am73 °FPassing clouds.6 mph94%29.86 "HgN/A
4:30 am73 °FPassing clouds.No wind94%29.86 "HgN/A
4:00 am73 °FPassing clouds.3 mph94%29.86 "HgN/A
3:30 am73 °FPassing clouds.3 mph94%29.86 "HgN/A
3:00 am73 °FPassing clouds.No wind94%29.86 "HgN/A
2:30 am73 °FPassing clouds.3 mph94%29.86 "HgN/A
2:00 am75 °FPassing clouds.No wind94%29.89 "HgN/A
1:00 am75 °FPassing clouds.5 mph94%29.89 "HgN/A
12:30 am75 °FThunderstorms. Passing clouds.3 mph94%29.89 "HgN/A
12:00 am75 °FThunderstorms. Passing clouds.No wind94%29.92 "HgN/A
11:30 pm
Thu, Dec 8
75 °FThunderstorms. Passing clouds.5 mph94%29.92 "HgN/A
11:00 pm75 °FThunderstorms. Passing clouds.3 mph94%29.89 "HgN/A
10:30 pm75 °FThunderstorms. Passing clouds.3 mph94%29.95 "HgN/A
10:00 pm75 °FThunderstorms. Passing clouds.5 mph94%29.95 "HgN/A
9:30 pm73 °FThunderstorms. Passing clouds.5 mph94%29.95 "HgN/A
9:00 pm73 °FPassing clouds.5 mph94%29.95 "HgN/A
8:30 pm73 °FPassing clouds.No wind94%29.89 "HgN/A
8:00 pm73 °FPassing clouds.5 mph94%29.89 "HgN/A
7:30 pm73 °FThunderstorms. Passing clouds.5 mph94%29.89 "HgN/A
7:00 pm73 °FThunderstorms. Partly sunny.No wind94%29.86 "HgN/A
6:30 pm73 °FThunderstorms. Partly sunny.No wind94%29.86 "HgN/A
6:00 pm73 °FThunderstorms. Partly sunny.No wind94%29.83 "Hg6 mi
5:30 pm75 °FThunderstorms. Partly sunny.5 mph94%29.80 "Hg5 mi
5:00 pm77 °FThunderstorms. Partly sunny.12 mph83%29.86 "Hg4 mi
4:30 pm86 °FThunderstorms. Partly sunny.6 mph75%29.80 "HgN/A
4:00 pm88 °FScattered clouds.9 mph75%29.80 "HgN/A
3:30 pm88 °FScattered clouds.7 mph70%29.83 "HgN/A
3:00 pm88 °FPartly sunny.12 mph75%29.83 "HgN/A
2:30 pm88 °FPartly sunny.10 mph70%29.83 "HgN/A
2:00 pm88 °FPartly sunny.9 mph70%29.83 "HgN/A
1:30 pm88 °FPartly sunny.6 mph75%29.83 "HgN/A
1:00 pm88 °FPartly sunny.6 mph75%29.86 "HgN/A
12:30 pm88 °FPartly sunny.9 mph70%29.86 "HgN/A
12:00 pm86 °FPartly sunny.6 mph75%29.89 "HgN/A
11:30 am86 °FPartly sunny.5 mph79%29.89 "HgN/A
11:00 am86 °FScattered clouds.No wind75%29.89 "HgN/A
10:30 am84 °FScattered clouds.6 mph74%29.92 "HgN/A
10:00 am81 °FPassing clouds.5 mph84%29.92 "HgN/A
Weather by CustomWeather, © 2016

See weather overviewHow to use our weather pages